Regional Weather Roundup
Issued by NWS State College, PA

Home | Current Version | Previous Version | Graphics & Text | Print | Product List | Glossary On
Versions: 1 2 3 4 5 6 7 8 9 10 11 12 13 14 15 16 17 18 19 20 21 22 23 24 25 26 27 28 29 30 31 32 33 34 35 36 37 38 39 40 41 42 43 44 45 46 47 48 49 50
000
ASUS41 KCTP 230210
RWRCTP

REGIONAL WEATHER ROUNDUP
NATIONAL WEATHER SERVICE STATE COLLEGE PA
900 PM EST SUN JAN 22 2017

Note: "fair" indicates few or no clouds below 12,000 feet with no
significant weather and/or obstructions to visibility.

* = STATION THAT DOES NOT REPORT PRECIPITATION /E.G. RAIN...SNOW...ETC/
    THUNDER OR FOG.

PAZ002>004-007>009-013>016-020>023-029>032-230300-
WESTERN PENNSYLVANIA

CITY           SKY/WX    TMP DP  RH WIND       PRES   REMARKS
ERIE           FOG       39  38  96 NE9       29.63S VSB 1/4
MEADVILLE      CLOUDY    53  46  77 E8        29.59S
FRANKLIN*        N/A     54  46  76 E5        29.61S
NEW CASTLE     CLOUDY    56  48  74 E8        29.58S
BEAVER COUNTY  NOT AVBL
BUTLER*        CLOUDY    54  45  71 E13       29.60R
PITTSBURGH INT CLOUDY    55  48  77 E9        29.54F
PITTSBURGH     CLOUDY    54  44  69 E10       29.54F
INDIANA*       CLOUDY    50  46  87 E8G16     29.63S
LATROBE        CLOUDY    50  46  87 E9        29.58F
WASHINGTON CO* CLOUDY    54  45  71 NE5       29.54F
$$

PAZ004>006-010>012-017>019-024>028-033>037-041-042-045-046-049>053-230300-
CENTRAL PENNSYLVANIA

CITY           SKY/WX    TMP DP  RH WIND       PRES   REMARKS
BRADFORD       LGT RAIN  52  46  80 SE12      29.64S
DUBOIS         CLOUDY    50  43  77 E7        29.61F
CLEARFIELD     CLOUDY    47  45  93 E8        29.65S
JOHNSTOWN      CLOUDY    45  44  97 E12G20    29.58F
ALTOONA        FOG       44  43  96 NE8       29.64F VSB 1/4
STATE COLLEGE  FOG       41  41 100 CALM      29.68R VSB 1/4
WILLIAMSPORT   CLOUDY    45  43  93 CALM      29.70R FOG
SELINSGROVE    CLOUDY    44  44 100 N3        29.70S FOG
FT INDIANTOWN  CLOUDY    48  48 100 NE9       29.69R
CAPITAL CITY   LGT RAIN  48  46  93 NE3       29.68S FOG
HARRISBURG     LGT RAIN  47  47 100 CALM      29.67R FOG
YORK           LGT RAIN  46  46 100 CALM      29.66S FOG
$$

PAZ038>040-043-044-047-048-054-055-060>062-067>071-230300-
EASTERN PENNSYLVANIA

CITY           SKY/WX    TMP DP  RH WIND       PRES   REMARKS
SCRANTON       CLOUDY    51  47  86 VRB3      29.71R
MOUNT POCONO   LGT RAIN  43  42  97 E13       29.71R FOG
ALLENTOWN      CLOUDY    50  44  80 E14       29.73R
QUAKERTOWN*    CLOUDY    46  46 100 E6        29.73R
READING        CLOUDY    50  49  96 E10G18    29.70R
LANCASTER      LGT RAIN  49  49 100 E10       29.68S FOG
COATESVILLE    LGT RAIN  48  48 100 E15G24    29.70R
POTTSTOWN      LGT RAIN  46  45  96 E8G16     29.72R FOG
BLUE BELL      CLOUDY    45  45 100 E13G22    29.70S
DOYLESTOWN     CLOUDY    47  44  90 VRB5      29.72R
WILLOW GROVE   NOT AVBL
NORTH PHILA    LGT RAIN  47  45  93 E17G25    29.72S FOG
PHILADELPHIA   CLOUDY    48  46  93 E14       29.70R FOG
$$




USA.gov is the U.S. government's official web portal to all federal, state and local government web resources and services.